Radiation Dose measured at exhaust stack monitor of Fukushima Daiichi Nuclear Power Station
Date,Time,Unit 5 6 shared exhaust cylinders,Wind Direction,Wind Velocity(m/s)
2021/11/23,00:00,3.8,west-northwest,10.5
2021/11/23,00:10,4.0,northwest,8.2
2021/11/23,00:20,3.9,west-northwest,11.3
2021/11/23,00:30,3.9,west-northwest,13.5
2021/11/23,00:40,3.8,west-northwest,13.2
2021/11/23,00:50,4.0,west-northwest,10.7
2021/11/23,01:00,3.8,west-northwest,6.8
2021/11/23,01:10,3.9,west-northwest,3.7
2021/11/23,01:20,3.8,west-northwest,4.3
2021/11/23,01:30,3.7,west-northwest,3.9
2021/11/23,01:40,3.8,northwest,3.8
2021/11/23,01:50,3.9,west-northwest,4.8
2021/11/23,02:00,4.0,west-northwest,5.1
2021/11/23,02:10,3.9,west-northwest,4.3
2021/11/23,02:20,4.0,northwest,6.1
2021/11/23,02:30,3.8,northwest,8.4
2021/11/23,02:40,3.9,northwest,7.3
2021/11/23,02:50,4.0,north-northwest,7.8
2021/11/23,03:00,3.9,northwest,7.0
2021/11/23,03:10,3.9,north-northwest,7.2
2021/11/23,03:20,4.0,northwest,4.8
2021/11/23,03:30,3.9,north-northwest,5.7
2021/11/23,03:40,3.9,north-northwest,6.0
2021/11/23,03:50,4.1,north-northwest,7.3
2021/11/23,04:00,3.9,northwest,6.1
2021/11/23,04:10,3.9,northwest,5.2
2021/11/23,04:20,3.9,northwest,7.3
2021/11/23,04:30,4.0,northwest,6.5
2021/11/23,04:40,3.9,northwest,8.4
2021/11/23,04:50,3.9,north-northwest,7.6
2021/11/23,05:00,3.8,north-northwest,8.5
2021/11/23,05:10,3.9,north-northwest,8.5
2021/11/23,05:20,3.9,northwest,8.2
2021/11/23,05:30,4.0,north-northwest,6.9
2021/11/23,05:40,3.9,north-northwest,5.6
2021/11/23,05:50,3.8,north-northwest,6.9
2021/11/23,06:00,4.0,northwest,8.5
2021/11/23,06:10,3.8,northwest,5.4
2021/11/23,06:20,3.8,northwest,3.6
2021/11/23,06:30,3.9,northwest,3.1
2021/11/23,06:40,4.0,northwest,5.3
2021/11/23,06:50,3.9,west-northwest,6.0
2021/11/23,07:00,4.0,west-northwest,3.4
2021/11/23,07:10,3.8,west-northwest,3.7
2021/11/23,07:20,3.8,northwest,5.2
2021/11/23,07:30,4.0,northwest,5.5
2021/11/23,07:40,4.0,northwest,6.8
2021/11/23,07:50,3.9,northwest,6.7
2021/11/23,08:00,4.0,northwest,7.0
2021/11/23,08:10,4.0,northwest,6.6
2021/11/23,08:20,3.8,northwest,9.0
2021/11/23,08:30,4.1,northwest,9.8
2021/11/23,08:40,3.9,northwest,9.0
2021/11/23,08:50,3.7,west-northwest,8.6
2021/11/23,09:00,3.9,west-northwest,8.1
2021/11/23,09:10,3.9,west-northwest,9.8
2021/11/23,09:20,3.9,northwest,10.6
2021/11/23,09:30,3.8,northwest,11.6
2021/11/23,09:40,4.0,west-northwest,8.6
2021/11/23,09:50,3.8,west-northwest,7.3
2021/11/23,10:00,3.9,west-northwest,11.3
2021/11/23,10:10,3.9,west-northwest,9.3
2021/11/23,10:20,3.9,west-northwest,8.9
2021/11/23,10:30,4.0,west-northwest,8.8
2021/11/23,10:40,3.9,west,7.7
2021/11/23,10:50,4.0,west,10.8
2021/11/23,11:00,3.9,west,11.7
2021/11/23,11:10,4.1,west,9.7
2021/11/23,11:20,4.1,west,11.9
2021/11/23,11:30,3.9,west,11.4
2021/11/23,11:40,3.8,west,14.2
2021/11/23,11:50,3.9,west,14.1
2021/11/23,12:00,4.0,west,13.0
2021/11/23,12:10,3.9,west,12.4
2021/11/23,12:20,3.9,west,11.0
2021/11/23,12:30,3.9,west,10.4
2021/11/23,12:40,3.9,west,9.9
2021/11/23,12:50,3.9,west,9.7
2021/11/23,13:00,4.0,west-southwest,8.3
2021/11/23,13:10,4.0,west,10.2
2021/11/23,13:20,3.8,west,7.9
2021/11/23,13:30,3.9,west,8.7
2021/11/23,13:40,3.8,west,7.2
2021/11/23,13:50,3.9,west,8.2
2021/11/23,14:00,3.9,west,6.6
2021/11/23,14:10,3.9,west-southwest,8.1
2021/11/23,14:20,3.8,west-southwest,7.0
2021/11/23,14:30,3.9,west-southwest,8.0
2021/11/23,14:40,3.8,west-southwest,7.3
2021/11/23,14:50,3.9,west-southwest,5.5
2021/11/23,15:00,3.9,west-southwest,5.9
2021/11/23,15:10,3.9,southwest,3.8
2021/11/23,15:20,3.9,southwest,5.3
2021/11/23,15:30,4.0,southwest,4.8
2021/11/23,15:40,4.0,southwest,4.9
2021/11/23,15:50,3.9,southwest,2.9
2021/11/23,16:00,3.6,southwest,4.2
2021/11/23,16:10,3.9,west-southwest,4.6
2021/11/23,16:20,3.9,southwest,3.8
2021/11/23,16:30,3.9,southwest,2.9
2021/11/23,16:40,3.9,west-southwest,2.5
2021/11/23,16:50,3.8,west-southwest,3.5
2021/11/23,17:00,3.8,west,4.2
2021/11/23,17:10,3.9,west,4.2
2021/11/23,17:20,4.0,west,5.5
2021/11/23,17:30,4.0,west,6.0
2021/11/23,17:40,3.9,west,6.7
2021/11/23,17:50,3.8,west,10.0
2021/11/23,18:00,3.8,west,9.2
2021/11/23,18:10,3.9,west,9.3
2021/11/23,18:20,3.9,west,10.4
2021/11/23,18:30,3.9,west,8.9
2021/11/23,18:40,4.0,west,8.1
2021/11/23,18:50,3.8,west,9.8
2021/11/23,19:00,3.7,west,8.5
2021/11/23,19:10,3.8,west,9.4
2021/11/23,19:20,3.9,west,9.1
2021/11/23,19:30,3.8,west,8.7
2021/11/23,19:40,4.0,west,10.0
2021/11/23,19:50,3.9,west,11.3
2021/11/23,20:00,3.8,west,9.7
2021/11/23,20:10,3.8,west,9.7
2021/11/23,20:20,3.8,west,8.7
2021/11/23,20:30,3.8,west-northwest,8.1
2021/11/23,20:40,3.9,west,8.1
2021/11/23,20:50,4.0,west,6.8
2021/11/23,21:00,4.0,west-northwest,7.0
2021/11/23,21:10,4.0,west-northwest,8.9
2021/11/23,21:20,3.9,west,9.1
2021/11/23,21:30,3.9,west,9.1
2021/11/23,21:40,3.9,west,8.0
2021/11/23,21:50,4.0,west,7.1
2021/11/23,22:00,3.9,west-northwest,7.4
2021/11/23,22:10,3.9,west-northwest,7.8
2021/11/23,22:20,3.8,west-northwest,8.0
2021/11/23,22:30,4.0,west,7.8
2021/11/23,22:40,3.9,west,6.9
2021/11/23,22:50,3.9,west-northwest,9.6
2021/11/23,23:00,3.9,west,9.5
2021/11/23,23:10,4.0,west,7.9
2021/11/23,23:20,3.9,west,6.8
2021/11/23,23:30,3.8,west,7.5
2021/11/23,23:40,4.2,west-northwest,6.2
2021/11/23,23:50,3.9,west-northwest,7.0
